Wilmington, DE

7:57 PM EST on November 11, 2019 (GMT -0500)
New Castle County

Weather History for KILG - October, 2019

Change the Weather History Date:

Wednesday, October 16, 2019

  Actual Average Record
Temperature  
Mean Temperature 59 °F 56 °F  
Max Temperature 66 °F 66 °F 87 °F (1897)
Min Temperature 52 °F 46 °F 29 °F (1944)
Degree Days  
Heating Degree Days 6 9  
Month to date heating degree days 55 114  
Since 1 July heating degree days 61 166  
Cooling Degree Days 0 0  
Month to date cooling degree days 46 15  
Year to date cooling degree days 1505 1142  
Growing Degree Days 9 (Base 50)    
Moisture  
Dew Point 58 °F    
Average Humidity 82    
Maximum Humidity 100    
Minimum Humidity 63    
Precipitation  
Precipitation 1.91 in 0.11 in 1.91 in (2019)
Month to date precipitation 2.13 1.89  
Year to date precipitation 38.73 34.97  
Snow  
Snow 0.00 in 0.00 in 0.00 in (1894)
Month to date snowfall 0.0 0.0  
Since 1 July snowfall 0.0 0.0  
Since 1 September snowfall 0.0 0.0  
Snow Depth 0.00 in    
Sea Level Pressure  
Sea Level Pressure 29.64 in    
Wind  
Wind Speed 14 mph (ESE)    
Max Wind Speed 33 mph    
Max Gust Speed 45 mph    
Visibility 6 miles    
Events Rain    
T = Trace of Precipitation, MM = Missing Value Source: NWS Daily Summary

Daily Weather History Graph

Daily Weather History Graph

Search for Another Location

Airport or City:

Astronomy

Oct. 16, 2019 Rise Set
Actual Time 7:13 AM EDT 6:22 PM EDT
Civil Twilight 6:46 AM EDT 6:49 PM EDT
Nautical Twilight 6:14 AM EDT 7:20 PM EDT
Astronomical Twilight 5:43 AM EDT 7:51 PM EDT
Moon 8:14 PM EDT (10/16) 9:41 AM EDT (10/16)
Length of Visible Light 12h 03m
Length of Day
11h 08m
Waning Gibbous, 93% of the Moon is Illuminated
Oct 16
Waning Gibbous
Oct 21
Last Quarter
Oct 27
New
Nov 4
First Quarter
Nov 12
Full

Hourly Weather History & Observations

Time (EDT) Temp. Dew Point Humidity Pressure Visibility Wind Dir Wind Speed Gust Speed Precip Events Conditions
12:51 AM 55.9 °F 52.0 °F 87% 30.05 in 10.0 mi SE 4.6 mph - N/A   Clear
1:51 AM 55.0 °F 52.0 °F 89% 30.03 in 10.0 mi ESE 3.5 mph - N/A   Clear
2:14 AM 55.0 °F 53.1 °F 93% 30.02 in 10.0 mi ESE 3.5 mph - N/A   Mostly Cloudy
2:31 AM 55.9 °F 53.1 °F 90% 30.02 in 10.0 mi SE 4.6 mph - N/A   Overcast
2:51 AM 55.9 °F 54.0 °F 93% 30.01 in 10.0 mi ESE 4.6 mph - N/A   Mostly Cloudy
3:19 AM 55.9 °F 54.0 °F 93% 29.99 in 10.0 mi ESE 4.6 mph - N/A   Scattered Clouds
3:38 AM 55.9 °F 54.0 °F 93% 29.98 in 10.0 mi SE 6.9 mph - N/A   Mostly Cloudy
3:51 AM 55.9 °F 55.0 °F 97% 29.98 in 10.0 mi ESE 5.8 mph - N/A   Mostly Cloudy
4:19 AM 55.9 °F 54.0 °F 93% 29.97 in 10.0 mi ESE 3.5 mph - N/A   Scattered Clouds
4:51 AM 55.0 °F 54.0 °F 96% 29.96 in 10.0 mi East 4.6 mph - N/A   Clear
5:51 AM 55.9 °F 55.0 °F 97% 29.95 in 10.0 mi East 5.8 mph - N/A   Mostly Cloudy
6:51 AM 57.0 °F 55.9 °F 96% 29.92 in 10.0 mi SE 5.8 mph - N/A   Clear
7:51 AM 57.9 °F 57.0 °F 97% 29.90 in 10.0 mi SE 8.1 mph - N/A   Clear
8:51 AM 60.1 °F 59.0 °F 96% 29.89 in 10.0 mi ESE 5.8 mph - N/A   Partly Cloudy
9:51 AM 63.0 °F 61.0 °F 93% 29.83 in 10.0 mi SSE 9.2 mph - N/A   Clear
10:51 AM 64.0 °F 60.1 °F 87% 29.80 in 10.0 mi SE 10.4 mph - N/A   Mostly Cloudy
11:51 AM 64.9 °F 62.1 °F 90% 29.73 in 5.0 mi SE 10.4 mph - 0.04 in Rain Rain
12:51 PM 64.9 °F 63.0 °F 93% 29.67 in 10.0 mi ESE 12.7 mph - 0.06 in Rain Light Rain
1:25 PM 64.9 °F 63.0 °F 93% 29.63 in 10.0 mi ESE 10.4 mph - 0.02 in Rain Light Rain
1:51 PM 66.0 °F 63.0 °F 90% 29.62 in 5.0 mi SE 8.1 mph - 0.04 in Rain Rain
1:58 PM 66.0 °F 63.0 °F 90% 29.62 in 5.0 mi SE 8.1 mph - 0.01 in Rain Rain
2:22 PM 64.9 °F 64.0 °F 97% 29.61 in 1.8 mi SSW 4.6 mph - 0.09 in Rain Heavy Rain
2:45 PM 64.4 °F 62.6 °F 94% 29.58 in 1.0 mi East 3.5 mph - 0.44 in Rain Heavy Rain
2:51 PM 64.0 °F 63.0 °F 96% 29.57 in 1.8 mi East 6.9 mph - 0.51 in Rain Heavy Rain
2:58 PM 64.0 °F 64.0 °F 100% 29.56 in 2.5 mi ENE 4.6 mph - 0.03 in Rain Heavy Rain
3:03 PM 64.0 °F 64.0 °F 100% 29.56 in 2.5 mi NE 4.6 mph - 0.06 in Rain Rain
3:08 PM 64.0 °F 64.0 °F 100% 29.55 in 3.0 mi NNE 3.5 mph - 0.07 in Rain Heavy Rain
3:12 PM 64.0 °F 64.0 °F 100% 29.55 in 2.5 mi Calm Calm - 0.09 in Rain Heavy Rain
3:17 PM 64.0 °F 64.0 °F 100% 29.55 in 1.8 mi ENE 4.6 mph - 0.12 in Rain Heavy Rain
3:24 PM 64.0 °F 62.1 °F 93% 29.55 in 1.8 mi SE 11.5 mph - 0.17 in Rain Heavy Rain
3:27 PM 64.0 °F 62.1 °F 93% 29.54 in 2.0 mi SE 8.1 mph - 0.18 in Rain Heavy Rain
3:35 PM 64.0 °F 63.0 °F 96% 29.53 in 1.8 mi East 9.2 mph - 0.24 in Rain Heavy Rain
3:51 PM 62.1 °F 61.0 °F 96% 29.51 in 1.2 mi East 10.4 mph - 0.46 in Rain Heavy Rain
3:53 PM 62.1 °F 61.0 °F 96% 29.50 in 1.2 mi ESE 10.4 mph - 0.03 in Rain Heavy Rain
4:00 PM 63.0 °F 62.1 °F 97% 29.49 in 1.0 mi ESE 16.1 mph 29.9 mph 0.18 in Rain Heavy Rain
4:14 PM 62.1 °F 62.1 °F 100% 29.46 in 2.0 mi SE 11.5 mph - 0.30 in Rain Heavy Rain
4:28 PM 62.1 °F 62.1 °F 100% 29.44 in 2.5 mi ESE 13.8 mph 20.7 mph 0.38 in Rain Heavy Rain
4:51 PM 63.0 °F 62.1 °F 97% 29.43 in 1.5 mi SE 12.7 mph - 0.53 in Rain Heavy Rain
5:01 PM 63.0 °F 62.1 °F 97% 29.41 in 2.0 mi ESE 10.4 mph - 0.08 in Rain Heavy Rain
5:14 PM 63.0 °F 63.0 °F 100% 29.39 in 2.0 mi SE 6.9 mph - 0.15 in Rain Heavy Rain
5:21 PM 63.0 °F 63.0 °F 100% 29.38 in 3.0 mi SE 4.6 mph - 0.16 in Rain Rain
5:46 PM 62.6 °F 62.6 °F 100% 29.37 in 1.8 mi West 16.1 mph 23.0 mph 0.18 in Rain Rain
5:51 PM 61.0 °F 60.1 °F 97% 29.37 in 1.0 mi WNW 25.3 mph 32.2 mph 0.23 in Rain Heavy Rain
6:01 PM 60.1 °F 59.0 °F 96% 29.38 in 1.8 mi WNW 20.7 mph 31.1 mph 0.01 in Rain Rain
6:09 PM 59.0 °F 59.0 °F 100% 29.38 in 1.5 mi WNW 20.7 mph - 0.02 in Rain Light Rain
6:21 PM 59.0 °F 57.9 °F 96% 29.39 in 3.0 mi WNW 19.6 mph - 0.03 in Rain Light Rain
6:51 PM 57.9 °F 55.9 °F 93% 29.39 in 9.0 mi NW 28.8 mph 40.3 mph 0.04 in Rain Light Rain
7:03 PM 57.0 °F 54.0 °F 89% 29.39 in 10.0 mi WNW 25.3 mph 35.7 mph 0.00 in   Overcast
7:51 PM 57.0 °F 51.1 °F 81% 29.41 in 10.0 mi NW 20.7 mph 36.8 mph 0.00 in   Overcast
8:51 PM 55.0 °F 46.0 °F 72% 29.43 in 10.0 mi WNW 24.2 mph 40.3 mph N/A   Mostly Cloudy
10:51 PM 52.0 °F 39.9 °F 63% 29.46 in 10.0 mi WNW 19.6 mph 36.8 mph N/A   Clear
11:51 PM 52.0 °F 41.0 °F 66% 29.46 in 10.0 mi WNW 21.9 mph 32.2 mph N/A   Partly Cloudy